Showing default

SPACEEYE-T1, 63229

Orbit data source: Space-Track

SPACEEYE-T1, 63229 is a payload satellite owned by SatRec Initiative (KR) in SSO that was launched on Sat, 15 Mar 2025 UTC via an FALCON 9 launch vehicle from the Air Force Western Test Range (AFWTR). Payload-class satellites include a variety of spacecraft equipped with specific instruments for various scientific and technological missions. These include communications satellites like Starlink; space stations such as the ISS; scientific satellites like the Hubble; Earth observation satellites from companies like Planet Labs, Umbra, and HawkEye 360; GPS; miniature CubeSats for education and research; and military/defense satellites.

Loading next visibility...
Identifier
63229, 2025-052V
Orbit
SSO
Country
Flag of UnknownUnknown / SKOR
Related business
Manufacturer
SatRec Initiative
Mission
Operational Commercial Imaging
Bus & Motor
SPACEEYE-T, Unknown motor
Mass
700 kg wet, 700 kg dry
Launch date (UTC)
2025-03-15 (7 months ago)
Launch vehicle
FALCON 9
Launch site
Air Force Western Test Range (AFWTR)
Object type
Payload
Rocket body
Debris
Shape & HBR
Cyl + 2 Pan, 2.7 m
Radar Cross Section
7.637 m², Large (>1 m²)

Expand to show TLE details & history
Last TLE update: 5 hours ago

TLE from 5 hours ago
0 SPACEEYE-T1
1 63229U 25052V   25301.65075207  .00008011  00000-0  38009-3 0  9992
2 63229  97.4160 192.9645 0003351 229.5871 130.5072 15.19525298 34645
Epoch: 2025-10-28T15:37Z
TLE epoch observation values (Epoch: 2025-10-28T15:37:04.978Z)
Latitude
-0.00003°
Longitude
-78.54143°
Altitude
511.863 km
Speed
7.607 km/s
True Right ascension
12h 51m 51s
True Declination
0° 00' 00"
Sunlit
Object was in daylight at epoch
Visualization orbit readout
Latitude
Unknown
Longitude
Unknown
Altitude
Unknown
Speed
Unknown
Apparent Right ascension
Unknown
Apparent Declination
Unknown
Sunlit
N/A
Visualization observer readout
Local Sidereal Time
15:51:35
Azimuth
Unknown
Elevation
Unknown
Doppler factor
Unknown
Orbital elements
Apogee altitude
506.547 km
Perigee altitude
501.935 km
Semi-major axis
6,882.378 km
Eccentricity
0.00034
Inclination
97.416°
RAAN
192.9645°
Arg. of periapsis
229.5871°
True anomaly
130.53639°
Mean anomaly
130.5072°
Eccentric anomaly
130.52179°
Mean motion
3.80133 °/min
Orbital period
94.7 mins
BSTAR
0.00038009
Loading maneuver chart data...
Computing Atmospheric mass density...
Loading historical data...
Loading historical data...
Loading historical data...
Loading historical data...
Loading historical data...
Loading historical data...
Loading historical data...

Documentation

Showing up to 5 results
|